DW8932 Weather Reports


time (UTC)temp
C
wind
direction
speed
KPH
gust
KPH
rain 1hr
cm
rain 24hr
cm
rain mn
cm
humidity
%
barometer
mb
20260503224205 15 236 8.0 19.3 0.00 0.00 0.00 47 1012.2
20260503223704 14 213 4.8 12.9 0.00 0.00 0.00 47 1012.2
20260503223205 14 228 4.8 19.3 0.00 0.00 0.00 47 1012.2
20260503222704 14 245 11.3 25.7 0.00 0.00 0.00 47 1012.2
20260503222204 14 231 8.0 33.8 0.00 0.00 0.00 47 1012.4
20260503221704 15 230 8.0 22.5 0.00 0.00 0.00 46 1012.4
20260503220704 15 212 11.3 20.9 0.00 0.00 0.00 45 1012.4
20260503220205 15 246 9.7 29.0 0.00 0.00 0.00 45 1012.4
20260503215704 15 233 12.9 32.2 0.00 0.00 0.00 44 1012.2
20260503215204 15 248 9.7 24.1 0.00 0.00 0.00 45 1012.2
20260503214705 15 256 12.9 25.7 0.00 0.00 0.00 45 1012.2
20260503213704 15 232 6.4 19.3 0.00 0.00 0.00 46 1012.2
20260503213204 15 220 12.9 25.7 0.00 0.00 0.00 45 1012.2
20260503212204 15 238 8.0 24.1 0.00 0.00 0.00 46 1012.3
20260503211704 15 240 4.8 19.3 0.00 0.00 0.00 46 1012.3
20260503211205 15 252 9.7 22.5 0.00 0.00 0.00 46 1012.4
20260503210205 15 251 12.9 33.8 0.00 0.00 0.00 45 1012.4
20260503205705 15 251 6.4 22.5 0.00 0.00 0.00 45 1012.4
20260503205204 15 241 14.5 32.2 0.00 0.00 0.00 44 1012.4
20260503204705 15 244 16.1 38.6 0.00 0.00 0.00 43 1012.4
20260503204204 15 218 11.3 33.8 0.00 0.00 0.00 43 1012.4
20260503203704 16 255 14.5 25.7 0.00 0.00 0.00 43 1012.4
20260503202704 15 202 3.2 29.0 0.00 0.00 0.00 46 1012.4
20260503202204 15 227 9.7 29.0 0.00 0.00 0.00 44 1012.4
20260503201705 16 232 12.9 29.0 0.00 0.00 0.00 42 1012.9
20260503201205 16 232 11.3 19.3 0.00 0.00 0.00 42 1012.9
20260503200705 16 207 12.9 33.8 0.00 0.00 0.00 42 1012.9
20260503200205 16 234 12.9 33.8 0.00 0.00 0.00 42 1012.9
20260503195205 16 224 11.3 19.3 0.00 0.00 0.00 44 1012.9
20260503194704 16 264 11.3 20.9 0.00 0.00 0.00 45 1013.1
20260503194205 15 221 9.7 22.5 0.00 0.00 0.00 45 1013.0
20260503193704 15 223 12.9 32.2 0.00 0.00 0.00 45 1013.5
20260503192704 16 270 9.7 32.2 0.00 0.00 0.00 45 1013.5
20260503192205 16 278 16.1 38.6 0.00 0.00 0.00 45 1013.5
20260503191704 16 239 12.9 25.7 0.00 0.00 0.00 44 1013.5
20260503191205 15 260 11.3 22.5 0.00 0.00 0.00 46 1013.7
20260503190204 16 249 9.7 22.5 0.00 0.00 0.00 45 1013.7
20260503185704 16 224 8.0 24.1 0.00 0.00 0.00 43 1013.7
20260503185205 16 228 9.7 25.7 0.00 0.00 0.00 46 1013.7
20260503184205 16 210 8.0 29.0 0.00 0.00 0.00 45 1014.0
20260503183704 16 211 11.3 32.2 0.00 0.00 0.00 45 1014.0
20260503182204 16 244 11.3 33.8 0.00 0.00 0.00 45 1014.4
20260503181205 15 253 6.4 19.3 0.00 0.00 0.00 47 1014.4
20260503180204 16 228 11.3 25.7 0.00 0.00 0.00 43 1014.4
20260503175704 16 223 11.3 32.2 0.00 0.03 0.00 45 1014.4
20260503175205 16 268 4.8 20.9 0.00 0.03 0.00 46 1014.4
20260503174704 16 242 3.2 20.9 0.00 0.03 0.00 48 1014.5
20260503173705 15 261 11.3 20.9 0.00 0.03 0.00 48 1015.1
20260503173204 15 246 8.0 20.9 0.00 0.03 0.00 46 1015.1
20260503172705 15 204 8.0 35.4 0.00 0.03 0.00 46 1015.1
20260503172205 15 234 11.3 24.1 0.00 0.03 0.00 50 1015.1
20260503170204 15 270 9.7 29.0 0.00 0.03 0.00 51 1015.1
20260503150705 12 253 8.0 25.7 0.00 0.03 0.00 51 1015.9
20260503130706 7 220 8.0 16.1 0.00 0.03 0.00 61 1016.7
20260503130206 6 225 3.2 14.5 0.00 0.03 0.00 62 1016.8
20260503120205 2 182 1.6 9.7 0.00 0.10 0.00 80 1016.7
20260503110704 1 204 0.0 0.0 0.00 0.10 0.00 83 1016.3
20260503110204 1 213 0.0 0.0 0.00 0.10 0.00 83 1016.3
20260503100205 1 204 0.0 0.0 0.00 0.13 0.00 84 1015.9
20260503090205 1 182 0.0 0.0 0.00 0.15 0.00 87 1016.1
20260503081204 1 184 0.0 0.0 0.00 0.15 0.00 86 1016.2
20260503080704 1 201 0.0 0.0 0.00 0.15 0.00 86 1016.2
20260503072204 1 201 0.0 0.0 0.00 0.15 0.00 85 1016.2
20260503071704 1 208 0.0 0.0 0.00 0.15 0.00 85 1016.2
20260503070705 1 219 0.0 0.0 0.00 0.15 0.00 85 1016.1
20260503070205 1 219 0.0 0.0 0.00 0.15 0.00 85 1016.1
20260503054705 2 194 0.0 0.0 0.00 0.25 0.00 80 1016.6
20260503053704 2 194 0.0 0.0 0.00 0.25 0.00 79 1016.6
20260503052704 2 192 0.0 0.0 0.00 0.25 0.00 78 1016.6
20260503052204 2 207 0.0 0.0 0.00 0.25 0.00 78 1016.6
20260503051705 2 215 0.0 0.0 0.00 0.25 0.00 78 1016.6
20260503051204 2 219 0.0 0.0 0.00 0.25 0.00 78 1016.6
20260503050204 3 219 0.0 0.0 0.00 0.25 0.00 77 1016.7
20260503045205 3 219 0.0 0.0 0.00 0.28 0.00 77 1016.7
20260503044705 3 219 0.0 0.0 0.00 0.28 0.00 77 1016.7
20260503044204 3 219 0.0 0.0 0.00 0.28 0.00 77 1016.7
20260503043704 3 221 0.0 0.0 0.00 0.28 0.00 77 1016.7
20260503043204 3 221 0.0 0.0 0.00 0.28 0.00 77 1016.7
20260503042704 3 219 0.0 0.0 0.00 0.30 0.00 77 1016.7
20260503042204 3 234 0.0 0.0 0.00 0.30 0.00 77 1016.7
20260503041704 4 205 0.0 0.0 0.00 0.30 0.00 76 1016.7
20260503040705 4 219 0.0 0.0 0.00 0.30 0.00 76 1016.8
20260503040204 4 218 0.0 0.0 0.00 0.33 0.00 76 1016.8
20260503035705 4 166 0.0 0.0 0.00 0.33 0.33 76 1016.9
20260503035205 4 242 0.0 0.0 0.00 0.36 0.33 76 1016.9
20260503033705 4 196 0.0 0.0 0.00 0.38 0.33 75 1016.9
20260503032704 4 193 0.0 0.0 0.00 0.41 0.33 74 1016.9
20260503032205 4 199 0.0 0.0 0.00 0.41 0.33 74 1017.1
20260503031704 4 192 0.0 0.0 0.00 0.43 0.33 73 1017.1
20260503031204 4 198 0.0 0.0 0.00 0.43 0.33 73 1017.1
20260503030704 4 198 0.0 0.0 0.00 0.43 0.33 73 1017.1
20260503030204 4 198 0.0 0.0 0.00 0.43 0.33 73 1017.1
20260503025205 4 199 0.0 0.0 0.00 0.43 0.33 72 1017.1
20260503024705 4 199 0.0 0.0 0.00 0.43 0.33 72 1017.1
20260503024205 4 208 0.0 0.0 0.00 0.43 0.33 72 1017.1
20260503023705 4 221 0.0 0.0 0.00 0.43 0.33 71 1017.1
20260503023205 4 221 0.0 0.0 0.00 0.43 0.33 70 1017.1
20260503022704 5 223 0.0 0.0 0.00 0.43 0.33 70 1017.1
20260503021704 5 223 0.0 0.0 0.00 0.43 0.33 69 1017.1
20260503021204 5 223 0.0 0.0 0.00 0.43 0.33 69 1017.1
20260503020704 5 224 0.0 0.0 0.00 0.43 0.33 69 1017.1
20260503020204 5 224 0.0 0.0 0.00 0.43 0.33 69 1017.1
20260503015704 5 224 0.0 0.0 0.00 0.43 0.33 69 1017.1
20260503015204 5 227 0.0 0.0 0.00 0.43 0.33 68 1017.1
20260503014704 5 313 0.0 0.0 0.00 0.43 0.33 68 1017.1
20260503014205 5 314 0.0 0.0 0.00 0.43 0.33 68 1017.1
20260503012705 5 314 0.0 0.0 0.00 0.43 0.33 67 1016.9
20260503011704 5 314 0.0 0.0 0.00 0.43 0.33 66 1016.9
20260503011205 5 314 0.0 0.0 0.00 0.43 0.33 66 1016.9
20260503010705 5 314 0.0 0.0 0.00 0.43 0.33 65 1016.9
20260503010205 5 314 0.0 0.0 0.00 0.43 0.33 65 1016.9
20260503005705 5 314 0.0 0.0 0.00 0.43 0.33 65 1016.9
20260503004705 5 314 0.0 0.0 0.00 0.43 0.33 65 1016.9
20260503004204 5 314 0.0 0.0 0.00 0.43 0.33 64 1016.9
20260503003705 5 314 0.0 0.0 0.00 0.43 0.33 64 1016.9
20260503003205 5 314 0.0 0.0 0.00 0.43 0.33 64 1017.0
20260503002705 6 314 0.0 0.0 0.00 0.43 0.33 64 1016.9
20260503002205 6 314 0.0 0.0 0.00 0.43 0.33 64 1016.9
20260503001705 6 314 0.0 0.0 0.00 0.43 0.33 63 1016.9
20260503001204 6 313 0.0 0.0 0.00 0.43 0.33 63 1016.9
20260503000204 6 312 0.0 0.0 0.00 0.43 0.33 62 1016.9
20260502235704 6 311 0.0 0.0 0.00 0.43 0.33 61 1016.9
20260502235205 6 323 0.0 0.0 0.00 0.43 0.33 61 1016.9
20260502234204 6 336 0.0 0.0 0.00 0.43 0.33 61 1016.9
20260502233204 6 298 0.0 0.0 0.00 0.43 0.33 62 1016.9
20260502232705 6 315 0.0 0.0 0.00 0.43 0.33 62 1016.9
20260502231704 6 309 0.0 0.0 0.00 0.43 0.33 61 1016.9
20260502230205 6 282 0.0 1.6 0.00 0.43 0.33 59 1016.9
20260502225704 6 297 1.6 11.3 0.00 0.43 0.33 58 1016.9